Location: Unnamed
(47.6264°N, 122.3366°W)
Time: 12:07:03
(UTC-07:00)

UPPER FREE FLYER - Pass Details

Date: 10 August 2020
Orbit: 571 x 589 km, 97.7° (Epoch: 01 October)

Event Time Altitude Azimuth Distance (km) Brightness Sun altitude
Exits shadow 22:20:28 29° 113° (ESE) 1,064 ? -16.2°
Maximum altitude 22:21:52 39° 70° (ENE) 871 ? -16.4°
Drops below altitude 10° 22:25:42 10° 1° (N) 1,899 ? -16.8°
Sets 22:27:57 0° 354° (N) 2,805 ? -17.1°
